[{"OBJECT_NAME":"GLOBALSTAR M069","OBJECT_ID":"2007-020C","EPOCH":"2026-09-12T06:29:13.710048","MEAN_MOTION":12.23474554,"ECCENTRICITY":0.00013313,"INCLINATION":52.0063,"RA_OF_ASC_NODE":5.6448,"ARG_OF_PERICENTER":342.3395,"MEAN_ANOMALY":38.1634,"EPHEMERIS_TYPE":0,"CLASSIFICATION_TYPE":"U","NORAD_CAT_ID":31573,"ELEMENT_SET_NO":999,"REV_AT_EPOCH":88946,"BSTAR":0.00040751633,"MEAN_MOTION_DOT":-4.8e-7,"MEAN_MOTION_DDOT":0},{"OBJECT_NAME":"GLOBALSTAR M072","OBJECT_ID":"2007-020D","EPOCH":"2026-09-12T02:56:04.426080","MEAN_MOTION":11.91660093,"ECCENTRICITY":0.00013131,"INCLINATION":51.9908,"RA_OF_ASC_NODE":228.8003,"ARG_OF_PERICENTER":104.645,"MEAN_ANOMALY":337.1524,"EPHEMERIS_TYPE":0,"CLASSIFICATION_TYPE":"U","NORAD_CAT_ID":31574,"ELEMENT_SET_NO":999,"REV_AT_EPOCH":88534,"BSTAR":-0.00022394839,"MEAN_MOTION_DOT":-0.000001,"MEAN_MOTION_DDOT":0},{"OBJECT_NAME":"GLOBALSTAR M066","OBJECT_ID":"2007-048C","EPOCH":"2026-09-12T04:26:50.337312","MEAN_MOTION":12.30390665,"ECCENTRICITY":0.00041976,"INCLINATION":51.9581,"RA_OF_ASC_NODE":168.1654,"ARG_OF_PERICENTER":222.7021,"MEAN_ANOMALY":302.755,"EPHEMERIS_TYPE":0,"CLASSIFICATION_TYPE":"U","NORAD_CAT_ID":32265,"ELEMENT_SET_NO":999,"REV_AT_EPOCH":87093,"BSTAR":-0.00034178825,"MEAN_MOTION_DOT":-0.00000135,"MEAN_MOTION_DDOT":0},{"OBJECT_NAME":"GLOBALSTAR M079","OBJECT_ID":"2010-054A","EPOCH":"2026-09-12T06:11:03.652224","MEAN_MOTION":12.62267372,"ECCENTRICITY":0.0000357,"INCLINATION":52.0028,"RA_OF_ASC_NODE":203.6144,"ARG_OF_PERICENTER":98.1127,"MEAN_ANOMALY":49.2003,"EPHEMERIS_TYPE":0,"CLASSIFICATION_TYPE":"U","NORAD_CAT_ID":37188,"ELEMENT_SET_NO":999,"REV_AT_EPOCH":73354,"BSTAR":-0.000026698686,"MEAN_MOTION_DOT":-0.00000109,"MEAN_MOTION_DDOT":0},{"OBJECT_NAME":"GLOBALSTAR M074","OBJECT_ID":"2010-054B","EPOCH":"2026-09-12T06:54:37.403424","MEAN_MOTION":12.6226303,"ECCENTRICITY":0.00003887,"INCLINATION":52.0001,"RA_OF_ASC_NODE":202.7753,"ARG_OF_PERICENTER":51.4818,"MEAN_ANOMALY":112.432,"EPHEMERIS_TYPE":0,"CLASSIFICATION_TYPE":"U","NORAD_CAT_ID":37189,"ELEMENT_SET_NO":999,"REV_AT_EPOCH":73415,"BSTAR":-0.000045423934,"MEAN_MOTION_DOT":-0.00000112,"MEAN_MOTION_DDOT":0},{"OBJECT_NAME":"GLOBALSTAR M076","OBJECT_ID":"2010-054C","EPOCH":"2026-09-12T01:24:10.840320","MEAN_MOTION":12.62263557,"ECCENTRICITY":0.00001708,"INCLINATION":52.0017,"RA_OF_ASC_NODE":203.6848,"ARG_OF_PERICENTER":72.2465,"MEAN_ANOMALY":8.4157,"EPHEMERIS_TYPE":0,"CLASSIFICATION_TYPE":"U","NORAD_CAT_ID":37190,"ELEMENT_SET_NO":999,"REV_AT_EPOCH":73384,"BSTAR":-0.000056537692,"MEAN_MOTION_DOT":-0.00000114,"MEAN_MOTION_DDOT":0},{"OBJECT_NAME":"GLOBALSTAR M077","OBJECT_ID":"2010-054D","EPOCH":"2026-09-12T04:24:09.679104","MEAN_MOTION":11.67548066,"ECCENTRICITY":0.0002496,"INCLINATION":51.9982,"RA_OF_ASC_NODE":318.489,"ARG_OF_PERICENTER":340.7271,"MEAN_ANOMALY":53.2126,"EPHEMERIS_TYPE":0,"CLASSIFICATION_TYPE":"U","NORAD_CAT_ID":37191,"ELEMENT_SET_NO":999,"REV_AT_EPOCH":73130,"BSTAR":0.00024086682,"MEAN_MOTION_DOT":-6.5e-7,"MEAN_MOTION_DDOT":0},{"OBJECT_NAME":"GLOBALSTAR M075","OBJECT_ID":"2010-054E","EPOCH":"2026-09-12T03:36:02.801088","MEAN_MOTION":12.62260547,"ECCENTRICITY":0.00004156,"INCLINATION":51.993,"RA_OF_ASC_NODE":245.4117,"ARG_OF_PERICENTER":73.3122,"MEAN_ANOMALY":4.7175,"EPHEMERIS_TYPE":0,"CLASSIFICATION_TYPE":"U","NORAD_CAT_ID":37192,"ELEMENT_SET_NO":999,"REV_AT_EPOCH":73292,"BSTAR":-0.000051887466,"MEAN_MOTION_DOT":-0.00000113,"MEAN_MOTION_DDOT":0},{"OBJECT_NAME":"GLOBALSTAR M073","OBJECT_ID":"2010-054F","EPOCH":"2026-09-12T06:02:07.412352","MEAN_MOTION":12.62267872,"ECCENTRICITY":0.00004644,"INCLINATION":52.0052,"RA_OF_ASC_NODE":159.269,"ARG_OF_PERICENTER":85.9828,"MEAN_ANOMALY":91.9481,"EPHEMERIS_TYPE":0,"CLASSIFICATION_TYPE":"U","NORAD_CAT_ID":37193,"ELEMENT_SET_NO":999,"REV_AT_EPOCH":73492,"BSTAR":0.000085904237,"MEAN_MOTION_DOT":-8.8e-7,"MEAN_MOTION_DDOT":0},{"OBJECT_NAME":"GLOBALSTAR M083","OBJECT_ID":"2011-033A","EPOCH":"2026-09-12T08:12:59.766624","MEAN_MOTION":12.62259051,"ECCENTRICITY":0.00006357,"INCLINATION":51.9845,"RA_OF_ASC_NODE":107.103,"ARG_OF_PERICENTER":101.1959,"MEAN_ANOMALY":69.6724,"EPHEMERIS_TYPE":0,"CLASSIFICATION_TYPE":"U","NORAD_CAT_ID":37739,"ELEMENT_SET_NO":999,"REV_AT_EPOCH":70395,"BSTAR":0.00016910783,"MEAN_MOTION_DOT":-7.3e-7,"MEAN_MOTION_DDOT":0},{"OBJECT_NAME":"GLOBALSTAR M088","OBJECT_ID":"2011-033B","EPOCH":"2026-09-12T06:45:31.210272","MEAN_MOTION":12.6227019,"ECCENTRICITY":0.00006684,"INCLINATION":52.024,"RA_OF_ASC_NODE":13.9227,"ARG_OF_PERICENTER":98.0793,"MEAN_ANOMALY":277.1516,"EPHEMERIS_TYPE":0,"CLASSIFICATION_TYPE":"U","NORAD_CAT_ID":37740,"ELEMENT_SET_NO":999,"REV_AT_EPOCH":69949,"BSTAR":-0.000020585271,"MEAN_MOTION_DOT":-0.00000107,"MEAN_MOTION_DDOT":0},{"OBJECT_NAME":"GLOBALSTAR M091","OBJECT_ID":"2011-033C","EPOCH":"2026-09-12T05:13:47.429184","MEAN_MOTION":12.62264683,"ECCENTRICITY":0.00006691,"INCLINATION":52.0019,"RA_OF_ASC_NODE":336.9576,"ARG_OF_PERICENTER":113.0878,"MEAN_ANOMALY":272.2564,"EPHEMERIS_TYPE":0,"CLASSIFICATION_TYPE":"U","NORAD_CAT_ID":37741,"ELEMENT_SET_NO":999,"REV_AT_EPOCH":70027,"BSTAR":0.000061688429,"MEAN_MOTION_DOT":-9.3e-7,"MEAN_MOTION_DDOT":0},{"OBJECT_NAME":"GLOBALSTAR M085","OBJECT_ID":"2011-033D","EPOCH":"2026-09-12T01:03:23.677920","MEAN_MOTION":12.62265259,"ECCENTRICITY":0.00005141,"INCLINATION":52.0125,"RA_OF_ASC_NODE":288.8564,"ARG_OF_PERICENTER":117.8018,"MEAN_ANOMALY":256.8833,"EPHEMERIS_TYPE":0,"CLASSIFICATION_TYPE":"U","NORAD_CAT_ID":37742,"ELEMENT_SET_NO":999,"REV_AT_EPOCH":70076,"BSTAR":0.00011503948,"MEAN_MOTION_DOT":-8.3e-7,"MEAN_MOTION_DDOT":0},{"OBJECT_NAME":"GLOBALSTAR M081","OBJECT_ID":"2011-033E","EPOCH":"2026-09-12T03:41:29.397408","MEAN_MOTION":12.62266214,"ECCENTRICITY":0.00003141,"INCLINATION":51.9956,"RA_OF_ASC_NODE":290.8586,"ARG_OF_PERICENTER":121.5132,"MEAN_ANOMALY":272.579,"EPHEMERIS_TYPE":0,"CLASSIFICATION_TYPE":"U","NORAD_CAT_ID":37743,"ELEMENT_SET_NO":999,"REV_AT_EPOCH":70092,"BSTAR":0.00012518394,"MEAN_MOTION_DOT":-8.1e-7,"MEAN_MOTION_DDOT":0},{"OBJECT_NAME":"GLOBALSTAR M089","OBJECT_ID":"2011-033F","EPOCH":"2026-09-12T06:25:32.207232","MEAN_MOTION":12.62263547,"ECCENTRICITY":0.0000335,"INCLINATION":51.9912,"RA_OF_ASC_NODE":244.6523,"ARG_OF_PERICENTER":25.3911,"MEAN_ANOMALY":347.7024,"EPHEMERIS_TYPE":0,"CLASSIFICATION_TYPE":"U","NORAD_CAT_ID":37744,"ELEMENT_SET_NO":999,"REV_AT_EPOCH":70178,"BSTAR":-0.000002359388,"MEAN_MOTION_DOT":-0.00000104,"MEAN_MOTION_DDOT":0},{"OBJECT_NAME":"GLOBALSTAR M084","OBJECT_ID":"2011-080A","EPOCH":"2026-09-12T07:35:28.527360","MEAN_MOTION":12.62264137,"ECCENTRICITY":0.00005045,"INCLINATION":51.9995,"RA_OF_ASC_NODE":112.0301,"ARG_OF_PERICENTER":67.4623,"MEAN_ANOMALY":106.5132,"EPHEMERIS_TYPE":0,"CLASSIFICATION_TYPE":"U","NORAD_CAT_ID":38040,"ELEMENT_SET_NO":999,"REV_AT_EPOCH":67976,"BSTAR":0.00014317667,"MEAN_MOTION_DOT":-7.8e-7,"MEAN_MOTION_DDOT":0},{"OBJECT_NAME":"GLOBALSTAR M080","OBJECT_ID":"2011-080B","EPOCH":"2026-09-11T22:28:43.637952","MEAN_MOTION":12.62258724,"ECCENTRICITY":0.0001166,"INCLINATION":52.0046,"RA_OF_ASC_NODE":114.938,"ARG_OF_PERICENTER":84.6679,"MEAN_ANOMALY":291.0015,"EPHEMERIS_TYPE":0,"CLASSIFICATION_TYPE":"U","NORAD_CAT_ID":38041,"ELEMENT_SET_NO":999,"REV_AT_EPOCH":67984,"BSTAR":0.00018312,"MEAN_MOTION_DOT":-7.1e-7,"MEAN_MOTION_DDOT":0},{"OBJECT_NAME":"GLOBALSTAR M082","OBJECT_ID":"2011-080C","EPOCH":"2026-09-12T05:21:47.177280","MEAN_MOTION":12.62262838,"ECCENTRICITY":0.00009688,"INCLINATION":52.0072,"RA_OF_ASC_NODE":69.5696,"ARG_OF_PERICENTER":101.0187,"MEAN_ANOMALY":70.7748,"EPHEMERIS_TYPE":0,"CLASSIFICATION_TYPE":"U","NORAD_CAT_ID":38042,"ELEMENT_SET_NO":999,"REV_AT_EPOCH":68058,"BSTAR":0.000001965059,"MEAN_MOTION_DOT":-0.00000103,"MEAN_MOTION_DDOT":0},{"OBJECT_NAME":"GLOBALSTAR M092","OBJECT_ID":"2011-080D","EPOCH":"2026-09-12T04:41:31.281216","MEAN_MOTION":12.62265678,"ECCENTRICITY":0.00005959,"INCLINATION":52.0049,"RA_OF_ASC_NODE":160.058,"ARG_OF_PERICENTER":55.0907,"MEAN_ANOMALY":108.9507,"EPHEMERIS_TYPE":0,"CLASSIFICATION_TYPE":"U","NORAD_CAT_ID":38043,"ELEMENT_SET_NO":999,"REV_AT_EPOCH":67903,"BSTAR":0.000068903854,"MEAN_MOTION_DOT":-9.1e-7,"MEAN_MOTION_DDOT":0},{"OBJECT_NAME":"GLOBALSTAR M090","OBJECT_ID":"2011-080E","EPOCH":"2026-09-12T06:00:08.977824","MEAN_MOTION":12.62268219,"ECCENTRICITY":0.00009001,"INCLINATION":52.0121,"RA_OF_ASC_NODE":63.4719,"ARG_OF_PERICENTER":108.9082,"MEAN_ANOMALY":62.977,"EPHEMERIS_TYPE":0,"CLASSIFICATION_TYPE":"U","NORAD_CAT_ID":38044,"ELEMENT_SET_NO":999,"REV_AT_EPOCH":68070,"BSTAR":-0.000051505947,"MEAN_MOTION_DOT":-0.00000113,"MEAN_MOTION_DDOT":0},{"OBJECT_NAME":"GLOBALSTAR M086","OBJECT_ID":"2011-080F","EPOCH":"2026-09-12T04:34:27.008832","MEAN_MOTION":12.62289058,"ECCENTRICITY":0.00006204,"INCLINATION":51.9895,"RA_OF_ASC_NODE":63.4386,"ARG_OF_PERICENTER":205.1348,"MEAN_ANOMALY":324.2621,"EPHEMERIS_TYPE":0,"CLASSIFICATION_TYPE":"U","NORAD_CAT_ID":38045,"ELEMENT_SET_NO":999,"REV_AT_EPOCH":68064,"BSTAR":-0.000001983175,"MEAN_MOTION_DOT":-0.00000104,"MEAN_MOTION_DDOT":0},{"OBJECT_NAME":"GLOBALSTAR M097","OBJECT_ID":"2013-005A","EPOCH":"2026-09-12T06:21:49.172544","MEAN_MOTION":12.62271209,"ECCENTRICITY":0.00006127,"INCLINATION":52.0073,"RA_OF_ASC_NODE":338.2611,"ARG_OF_PERICENTER":119.3523,"MEAN_ANOMALY":240.7405,"EPHEMERIS_TYPE":0,"CLASSIFICATION_TYPE":"U","NORAD_CAT_ID":39072,"ELEMENT_SET_NO":999,"REV_AT_EPOCH":62790,"BSTAR":0.000001183788,"MEAN_MOTION_DOT":-0.00000104,"MEAN_MOTION_DDOT":0},{"OBJECT_NAME":"GLOBALSTAR M093","OBJECT_ID":"2013-005B","EPOCH":"2026-09-12T05:43:36.682464","MEAN_MOTION":12.62267047,"ECCENTRICITY":0.00006766,"INCLINATION":52.0126,"RA_OF_ASC_NODE":331.7251,"ARG_OF_PERICENTER":136.2173,"MEAN_ANOMALY":223.8748,"EPHEMERIS_TYPE":0,"CLASSIFICATION_TYPE":"U","NORAD_CAT_ID":39073,"ELEMENT_SET_NO":999,"REV_AT_EPOCH":62785,"BSTAR":0.00010329779,"MEAN_MOTION_DOT":-8.5e-7,"MEAN_MOTION_DDOT":0}]